GLOBALSTAR M093 [+] (39073 NORAD) Tracking and Keplerian Element Data

This shows tracking and keplerian element data for the satellite.

Feedback or suggestion? Click here.




ElementValue
Catalog39073
NameGLOBALSTAR M093 [+]
Epoch Orbit33049
Epoch Day91.90947284
Epoch Year2020
RAAN304.571
Inclination51.981
Eccentricity9.38E-05
Argument of Perigee57.5822
Mean Anonmoly302.5136
Mean Motion12.62266566
Decay Rate-9.3E-07
L11 39073U 13005B 20091.90947284 -.00000093 00000-0 58141-4 0 9992
L22 39073 51.9810 304.5710 0000938 57.5822 302.5136 12.62266566330498

Live tracking and technical data element details for GLOBALSTAR M093 [+] (NORAD 39073). GLOBALSTAR M093 [+] can be tracked NOW for your location showing map with azimuth and elevation plus other details from your city location.

Track the satellite on the map from your city or location and see movement details for azimuth, elevation, latitude, longitude, range, height, and movement on the map or in text.







IsCatalogInMostPopularTable: catalog: 39073, numindb: 351
Update: records affected: 1



GetName: 39073 GLOBALSTAR M093 [+]

Hit Count: updated at: Fri, 03 Apr 2020 07:13:08 GMT